Home > Weather > Delémont > Past weeks

Flag for Switzerland Past Weather in Delémont, Jura, Switzerland — Yesterday and Last 2 Weeks

Now
56 °F

Cool.


Feels Like: 56 °F
Forecast: 46 / 74 °F
Wind: 2 mph from Southwest

Location: Grenchen

Current Time: May 25, 2016 at 10:56:01 PM

Latest Report: May 25, 2016 at 10:00 PM


Visibility: N/A

Pressure: 29.99 "Hg

Humidity: 85%

Dew Point: 51 °F

Location of DelémontLocation

Past Weather in Delémont — Graph

°F

Delémont Temperature Yesterday

Maximum temperature yesterday: 59 °F (at 6:00 PM)
Minimum temperature yesterday: 47 °F (at 12:00 AM)
Average temperature yesterday: 52 °F

High & Low Weather Summary for the Past Weeks

 TemperatureHumidityPressure
High76 °F (May 22, 4:00 PM)100% (May 20, 3:00 AM)30.26 "Hg (May 20, 3:00 AM)
Low38 °F (May 16, 4:00 AM)37% (May 18, 4:40 PM)29.50 "Hg (May 11, 7:00 PM)
Average54 °F80%29.94 "Hg
* Reported May 10 9:00 PM — May 25 9:00 PM, Delémont, Weather by CustomWeather, © 2016

Note: Actual official high and low records may vary slightly from our data, if they occured in-between our weather recording intervals... More about our weather records

Advertising

Delémont Weather History for the Previous 24 Hours

Scroll right to see more
 ConditionsComfort  
Time TempWeatherWind HumidityBarometerVisibility
9:00 PM
Wed, May 25
58 °FCool.3 mph86%29.98 "HgN/A
8:00 PM61 °FCool.5 mph73%29.96 "HgN/A
7:00 PM63 °FMild.7 mph69%29.94 "HgN/A
6:00 PM64 °FMild.7 mph65%29.93 "HgN/A
5:00 PM64 °FMild.7 mph62%29.93 "HgN/A
4:00 PM64 °FMild.6 mph59%29.92 "HgN/A
3:00 PM65 °FMild.3 mph56%29.92 "HgN/A
2:00 PM64 °FMild.3 mph58%29.92 "HgN/A
1:00 PM62 °FCool.3 mph61%29.94 "HgN/A
12:00 PM60 °FCool.2 mph67%29.96 "HgN/A
11:00 AM57 °FCool.3 mph73%29.97 "HgN/A
9:00 AM52 °FCool.5 mph89%29.99 "HgN/A
8:00 AM51 °FCool.3 mph93%29.98 "HgN/A
7:00 AM49 °FCool.2 mph96%29.98 "HgN/A
6:00 AM48 °FCool.3 mph99%29.98 "HgN/A
5:00 AM45 °FCool.1 mph99%29.99 "HgN/A
4:40 AM44 °FQuite cool.1 mph99%29.98 "HgN/A
4:00 AM45 °FCool.3 mph99%29.98 "HgN/A
3:00 AM47 °FCool.No wind97%29.97 "HgN/A
2:00 AM46 °FCool.1 mph98%29.99 "HgN/A
1:00 AM46 °FCool.3 mph96%29.99 "HgN/A
12:00 AM49 °FCool.2 mph94%29.98 "HgN/A
11:00 PM
Tue, May 24
52 °FCool.5 mph89%29.98 "HgN/A
10:00 PM53 °FCool.3 mph87%29.97 "HgN/A
Weather by CustomWeather, © 2016

See weather overviewHow to use our weather pages